| time (UTC) | temp F | wind direction | speed MPH | gust MPH | rain 1hr in | rain 24hr in | rain mn in | humidity % | barometer mb |
| 20260905182520 | 77 | 302 | 5.0 | 8.0 | 0.00 | 0.03 | 0.00 | 31 | 1027.4 |
| 20260905181520 | 77 | 177 | 4.0 | 9.0 | 0.00 | 0.03 | 0.00 | 32 | 1027.5 |
| 20260905180520 | 77 | 209 | 6.0 | 12.0 | 0.00 | 0.03 | 0.00 | 32 | 1027.6 |
| 20260905175520 | 76 | 205 | 3.0 | 8.0 | 0.00 | 0.03 | 0.00 | 32 | 1027.7 |
| 20260905174521 | 76 | 202 | 5.0 | 9.0 | 0.00 | 0.03 | 0.00 | 32 | 1027.7 |
| 20260905173521 | 76 | 188 | 4.0 | 6.0 | 0.00 | 0.03 | 0.00 | 32 | 1027.8 |
| 20260905172521 | 75 | 44 | 2.0 | 9.0 | 0.00 | 0.03 | 0.00 | 32 | 1027.9 |
| 20260905171523 | 75 | 32 | 4.0 | 7.0 | 0.00 | 0.03 | 0.00 | 33 | 1027.9 |
| 20260905170530 | 75 | 270 | 2.0 | 5.0 | 0.00 | 0.03 | 0.00 | 34 | 1028.0 |
| 20260905165551 | 75 | 58 | 2.0 | 4.0 | 0.00 | 0.03 | 0.00 | 33 | 1027.9 |
| 20260905164521 | 74 | 53 | 2.0 | 5.0 | 0.00 | 0.03 | 0.00 | 35 | 1028.0 |
| 20260905163551 | 73 | 317 | 2.0 | 4.0 | 0.00 | 0.03 | 0.00 | 36 | 1028.1 |
| 20260905162542 | 72 | 45 | 2.0 | 5.0 | 0.00 | 0.03 | 0.00 | 39 | 1028.1 |
| 20260905161522 | 72 | 198 | 2.0 | 7.0 | 0.00 | 0.03 | 0.00 | 40 | 1028.1 |
| 20260905160531 | 71 | 251 | 1.0 | 2.0 | 0.00 | 0.03 | 0.00 | 41 | 1028.2 |
| 20260905155531 | 69 | 118 | 2.0 | 4.0 | 0.00 | 0.03 | 0.00 | 44 | 1028.2 |
| 20260905154517 | 68 | 352 | 1.0 | 3.0 | 0.00 | 0.03 | 0.00 | 46 | 1028.1 |
| 20260905153531 | 66 | 15 | 1.0 | 2.0 | 0.00 | 0.03 | 0.00 | 49 | 1028.1 |
| 20260905152532 | 64 | 54 | 1.0 | 3.0 | 0.00 | 0.03 | 0.00 | 53 | 1028.3 |
| 20260905151552 | 64 | 46 | 1.0 | 3.0 | 0.00 | 0.03 | 0.00 | 53 | 1028.3 |
| 20260905150532 | 63 | 344 | 3.0 | 4.0 | 0.00 | 0.03 | 0.00 | 54 | 1028.3 |
| 20260905145532 | 62 | 338 | 2.0 | 3.0 | 0.00 | 0.03 | 0.00 | 57 | 1028.5 |
| 20260905144518 | 61 | 301 | 1.0 | 2.0 | 0.00 | 0.03 | 0.00 | 60 | 1028.5 |
| 20260905143518 | 61 | 262 | 2.0 | 3.0 | 0.00 | 0.03 | 0.00 | 59 | 1028.4 |
| 20260905142518 | 60 | 241 | 3.0 | 5.0 | 0.00 | 0.03 | 0.00 | 61 | 1028.3 |
| 20260905141518 | 60 | 237 | 2.0 | 4.0 | 0.00 | 0.03 | 0.00 | 62 | 1028.3 |
| 20260905140518 | 60 | 245 | 2.0 | 3.0 | 0.00 | 0.03 | 0.00 | 61 | 1028.2 |
| 20260905135519 | 59 | 228 | 2.0 | 4.0 | 0.00 | 0.03 | 0.00 | 63 | 1028.1 |
| 20260905134519 | 58 | 174 | 2.0 | 3.0 | 0.00 | 0.03 | 0.00 | 65 | 1028.0 |
| 20260905133519 | 58 | 156 | 2.0 | 3.0 | 0.00 | 0.03 | 0.00 | 69 | 1028.0 |
| 20260905132519 | 58 | 137 | 1.0 | 2.0 | 0.00 | 0.03 | 0.00 | 66 | 1027.9 |
| 20260905131520 | 58 | 237 | 3.0 | 4.0 | 0.00 | 0.03 | 0.00 | 68 | 1027.8 |
| 20260905130520 | 58 | 179 | 5.0 | 6.0 | 0.00 | 0.03 | 0.00 | 66 | 1027.6 |
| 20260905125520 | 58 | 191 | 3.0 | 4.0 | 0.00 | 0.03 | 0.00 | 67 | 1027.5 |
| 20260905124519 | 59 | 236 | 2.0 | 4.0 | 0.00 | 0.03 | 0.00 | 66 | 1027.4 |
| 20260905123521 | 60 | 184 | 4.0 | 6.0 | 0.00 | 0.03 | 0.00 | 60 | 1027.1 |
| 20260905122520 | 60 | 149 | 5.0 | 7.0 | 0.00 | 0.03 | 0.00 | 60 | 1027.0 |
| 20260905121521 | 60 | 153 | 6.0 | 7.0 | 0.00 | 0.03 | 0.00 | 60 | 1027.0 |
| 20260905120521 | 60 | 153 | 6.0 | 7.0 | 0.00 | 0.03 | 0.00 | 59 | 1027.0 |
| 20260905115521 | 60 | 149 | 6.0 | 7.0 | 0.00 | 0.03 | 0.00 | 59 | 1027.0 |
| 20260905114521 | 59 | 149 | 5.0 | 7.0 | 0.00 | 0.03 | 0.00 | 61 | 1027.1 |
| 20260905113541 | 59 | 148 | 5.0 | 7.0 | 0.00 | 0.03 | 0.00 | 61 | 1027.1 |
| 20260905112522 | 59 | 158 | 6.0 | 8.0 | 0.00 | 0.03 | 0.00 | 62 | 1027.2 |
| 20260905111542 | 59 | 152 | 7.0 | 9.0 | 0.00 | 0.03 | 0.00 | 61 | 1027.0 |
| 20260905110522 | 58 | 151 | 6.0 | 9.0 | 0.00 | 0.03 | 0.00 | 62 | 1027.0 |
| 20260905105522 | 58 | 154 | 6.0 | 8.0 | 0.00 | 0.03 | 0.00 | 63 | 1027.0 |
| 20260905104542 | 58 | 154 | 6.0 | 7.0 | 0.00 | 0.03 | 0.00 | 62 | 1027.0 |
| 20260905103523 | 58 | 159 | 6.0 | 8.0 | 0.00 | 0.03 | 0.00 | 63 | 1026.9 |
| 20260905102517 | 58 | 159 | 6.0 | 8.0 | 0.00 | 0.03 | 0.00 | 62 | 1026.9 |
| 20260905101517 | 59 | 130 | 4.0 | 5.0 | 0.00 | 0.03 | 0.00 | 63 | 1026.9 |
| 20260905100524 | 59 | 146 | 5.0 | 7.0 | 0.00 | 0.03 | 0.00 | 63 | 1026.8 |
| 20260905095603 | 59 | 153 | 5.0 | 7.0 | 0.00 | 0.03 | 0.00 | 62 | 1026.9 |
| 20260905094518 | 60 | 156 | 7.0 | 9.0 | 0.00 | 0.03 | 0.00 | 61 | 1026.9 |
| 20260905093518 | 60 | 161 | 8.0 | 10.0 | 0.00 | 0.03 | 0.00 | 61 | 1026.9 |
| 20260905092518 | 60 | 157 | 8.0 | 10.0 | 0.00 | 0.03 | 0.00 | 62 | 1026.9 |
| 20260905091518 | 59 | 157 | 8.0 | 10.0 | 0.00 | 0.03 | 0.00 | 62 | 1027.0 |
| 20260905090521 | 59 | 153 | 8.0 | 11.0 | 0.00 | 0.03 | 0.00 | 63 | 1027.0 |
| 20260905085538 | 59 | 160 | 7.0 | 9.0 | 0.00 | 0.03 | 0.00 | 64 | 1027.0 |
| 20260905084519 | 58 | 163 | 8.0 | 10.0 | 0.00 | 0.03 | 0.00 | 65 | 1027.0 |
| 20260905083519 | 57 | 188 | 7.0 | 9.0 | 0.00 | 0.03 | 0.00 | 70 | 1027.1 |
| 20260905082519 | 58 | 183 | 8.0 | 12.0 | 0.00 | 0.03 | 0.00 | 66 | 1027.0 |
| 20260905081519 | 58 | 163 | 6.0 | 8.0 | 0.00 | 0.03 | 0.00 | 65 | 1027.1 |
| 20260905080559 | 58 | 180 | 8.0 | 11.0 | 0.00 | 0.03 | 0.00 | 64 | 1027.1 |
| 20260905075519 | 58 | 163 | 8.0 | 11.0 | 0.00 | 0.03 | 0.00 | 64 | 1027.1 |
| 20260905074519 | 57 | 158 | 8.0 | 10.0 | 0.00 | 0.03 | 0.00 | 66 | 1027.1 |
| 20260905073520 | 56 | 159 | 6.0 | 8.0 | 0.00 | 0.03 | 0.00 | 69 | 1027.1 |
| 20260905072520 | 57 | 162 | 7.0 | 8.0 | 0.00 | 0.03 | 0.00 | 68 | 1027.1 |
| 20260905071520 | 57 | 159 | 8.0 | 10.0 | 0.00 | 0.03 | 0.00 | 68 | 1027.1 |
| 20260905070518 | 58 | 162 | 7.0 | 10.0 | 0.00 | 0.03 | 0.00 | 67 | 1027.0 |
| 20260905065521 | 58 | 156 | 7.0 | 9.0 | 0.00 | 0.03 | 0.00 | 64 | 1027.0 |
| 20260905064521 | 58 | 178 | 6.0 | 8.0 | 0.00 | 0.03 | 0.00 | 67 | 1027.0 |
| 20260905063521 | 59 | 144 | 6.0 | 8.0 | 0.00 | 0.03 | 0.00 | 63 | 1026.9 |
| 20260905062541 | 58 | 157 | 6.0 | 9.0 | 0.00 | 0.03 | 0.00 | 64 | 1026.9 |
| 20260905061522 | 58 | 153 | 6.0 | 8.0 | 0.00 | 0.03 | 0.00 | 64 | 1026.8 |
| 20260905060521 | 58 | 160 | 7.0 | 9.0 | 0.00 | 0.03 | 0.00 | 64 | 1026.8 |
| 20260905055522 | 59 | 167 | 7.0 | 10.0 | 0.00 | 0.03 | 0.03 | 62 | 1026.8 |
| 20260905054522 | 59 | 161 | 7.0 | 9.0 | 0.00 | 0.03 | 0.03 | 60 | 1026.7 |
| 20260905053522 | 58 | 153 | 5.0 | 6.0 | 0.00 | 0.03 | 0.03 | 61 | 1026.7 |
| 20260905052522 | 57 | 141 | 4.0 | 6.0 | 0.00 | 0.03 | 0.03 | 64 | 1026.8 |
| 20260905051549 | 57 | 143 | 4.0 | 5.0 | 0.00 | 0.03 | 0.03 | 64 | 1026.9 |
| 20260905050517 | 57 | 135 | 4.0 | 6.0 | 0.00 | 0.03 | 0.03 | 64 | 1027.0 |
| 20260905045517 | 58 | 147 | 4.0 | 6.0 | 0.00 | 0.03 | 0.03 | 63 | 1027.0 |
| 20260905044517 | 58 | 151 | 5.0 | 7.0 | 0.00 | 0.03 | 0.03 | 63 | 1027.0 |
| 20260905043523 | 59 | 153 | 5.0 | 7.0 | 0.00 | 0.03 | 0.03 | 63 | 1027.0 |
| 20260905042524 | 58 | 151 | 5.0 | 8.0 | 0.00 | 0.03 | 0.03 | 65 | 1027.0 |
| 20260905041518 | 58 | 153 | 5.0 | 7.0 | 0.00 | 0.03 | 0.03 | 67 | 1027.1 |
| 20260905040518 | 57 | 154 | 5.0 | 7.0 | 0.00 | 0.03 | 0.03 | 71 | 1027.1 |
| 20260905035518 | 58 | 187 | 7.0 | 9.0 | 0.00 | 0.03 | 0.03 | 73 | 1027.0 |
| 20260905034518 | 59 | 190 | 8.0 | 10.0 | 0.00 | 0.03 | 0.03 | 71 | 1027.0 |
| 20260905033519 | 60 | 183 | 8.0 | 11.0 | 0.00 | 0.03 | 0.03 | 65 | 1026.8 |
| 20260905032519 | 60 | 177 | 9.0 | 12.0 | 0.00 | 0.03 | 0.03 | 63 | 1026.7 |
| 20260905031519 | 59 | 172 | 6.0 | 9.0 | 0.00 | 0.03 | 0.03 | 69 | 1026.7 |
| 20260905030519 | 60 | 191 | 8.0 | 11.0 | 0.00 | 0.03 | 0.03 | 67 | 1026.6 |
| 20260905025519 | 62 | 185 | 8.0 | 10.0 | 0.00 | 0.03 | 0.03 | 59 | 1026.5 |
| 20260905024519 | 63 | 150 | 6.0 | 9.0 | 0.00 | 0.03 | 0.03 | 53 | 1026.1 |
| 20260905023519 | 63 | 146 | 7.0 | 9.0 | 0.00 | 0.03 | 0.03 | 58 | 1026.0 |
| 20260905022520 | 62 | 150 | 8.0 | 11.0 | 0.02 | 0.03 | 0.03 | 58 | 1026.0 |
| 20260905021520 | 62 | 175 | 9.0 | 11.0 | 0.02 | 0.03 | 0.03 | 62 | 1026.0 |
| 20260905020517 | 62 | 171 | 10.0 | 14.0 | 0.03 | 0.03 | 0.03 | 62 | 1025.9 |
| 20260905015517 | 61 | 191 | 10.0 | 12.0 | 0.03 | 0.03 | 0.03 | 66 | 1026.0 |
| 20260905014521 | 61 | 201 | 10.0 | 15.0 | 0.03 | 0.03 | 0.03 | 66 | 1026.0 |
| 20260905013518 | 63 | 225 | 10.0 | 14.0 | 0.03 | 0.03 | 0.03 | 61 | 1026.0 |
| 20260905012538 | 65 | 232 | 9.0 | 15.0 | 0.01 | 0.01 | 0.01 | 58 | 1026.0 |
| 20260905011518 | 70 | 219 | 10.0 | 14.0 | 0.01 | 0.01 | 0.01 | 49 | 1025.8 |
| 20260905010518 | 72 | 190 | 11.0 | 15.0 | 0.00 | 0.00 | 0.00 | 44 | 1025.4 |
| 20260905005522 | 72 | 175 | 10.0 | 14.0 | 0.00 | 0.00 | 0.00 | 42 | 1025.2 |
| 20260905004520 | 73 | 167 | 8.0 | 12.0 | 0.00 | 0.00 | 0.00 | 39 | 1025.1 |
| 20260905003519 | 74 | 168 | 8.0 | 11.0 | 0.00 | 0.00 | 0.00 | 37 | 1025.0 |
| 20260905002522 | 76 | 157 | 8.0 | 9.0 | 0.00 | 0.00 | 0.00 | 35 | 1024.9 |
| 20260905001523 | 76 | 183 | 7.0 | 9.0 | 0.00 | 0.00 | 0.00 | 35 | 1025.0 |
| 20260905000543 | 76 | 128 | 3.0 | 5.0 | 0.00 | 0.00 | 0.00 | 34 | 1025.0 |
| 20260904235520 | 76 | 283 | 3.0 | 5.0 | 0.00 | 0.00 | 0.00 | 31 | 1024.9 |
| 20260904234517 | 75 | 269 | 3.0 | 5.0 | 0.00 | 0.00 | 0.00 | 31 | 1024.9 |
| 20260904233523 | 76 | 264 | 3.0 | 7.0 | 0.00 | 0.00 | 0.00 | 31 | 1024.8 |
| 20260904232523 | 76 | 246 | 3.0 | 6.0 | 0.00 | 0.00 | 0.00 | 30 | 1024.9 |
| 20260904231520 | 77 | 266 | 1.0 | 3.0 | 0.00 | 0.00 | 0.00 | 29 | 1024.9 |
| 20260904230521 | 77 | 271 | 2.0 | 4.0 | 0.00 | 0.00 | 0.00 | 30 | 1024.9 |
| 20260904225518 | 77 | 264 | 6.0 | 10.0 | 0.00 | 0.00 | 0.00 | 30 | 1024.9 |
| 20260904224521 | 78 | 209 | 3.0 | 5.0 | 0.00 | 0.00 | 0.00 | 28 | 1024.9 |
| 20260904223518 | 78 | 213 | 4.0 | 6.0 | 0.00 | 0.00 | 0.00 | 28 | 1025.0 |
| 20260904222544 | 76 | 280 | 4.0 | 9.0 | 0.00 | 0.00 | 0.00 | 30 | 1025.0 |
| 20260904221519 | 76 | 299 | 4.0 | 6.0 | 0.00 | 0.00 | 0.00 | 30 | 1025.1 |
| 20260904220519 | 76 | 285 | 5.0 | 9.0 | 0.00 | 0.00 | 0.00 | 30 | 1025.2 |
| 20260904215519 | 77 | 305 | 4.0 | 8.0 | 0.00 | 0.00 | 0.00 | 30 | 1025.3 |
| 20260904214519 | 77 | 294 | 6.0 | 11.0 | 0.00 | 0.00 | 0.00 | 30 | 1025.4 |
| 20260904213519 | 78 | 310 | 5.0 | 10.0 | 0.00 | 0.00 | 0.00 | 29 | 1025.3 |
| 20260904212520 | 80 | 286 | 10.0 | 16.0 | 0.00 | 0.00 | 0.00 | 27 | 1025.3 |
| 20260904211519 | 79 | 304 | 9.0 | 15.0 | 0.00 | 0.00 | 0.00 | 28 | 1025.3 |
| 20260904210520 | 78 | 305 | 5.0 | 11.0 | 0.00 | 0.00 | 0.00 | 27 | 1025.4 |
| 20260904205520 | 78 | 303 | 5.0 | 8.0 | 0.00 | 0.00 | 0.00 | 27 | 1025.4 |
| 20260904204520 | 77 | 274 | 5.0 | 10.0 | 0.00 | 0.00 | 0.00 | 27 | 1025.6 |
| 20260904203521 | 76 | 308 | 5.0 | 8.0 | 0.00 | 0.00 | 0.00 | 28 | 1025.7 |
| 20260904202517 | 76 | 287 | 5.0 | 10.0 | 0.00 | 0.00 | 0.00 | 28 | 1025.7 |
| 20260904201521 | 76 | 275 | 6.0 | 10.0 | 0.00 | 0.00 | 0.00 | 29 | 1025.8 |
| 20260904200521 | 76 | 291 | 6.0 | 10.0 | 0.00 | 0.00 | 0.00 | 28 | 1026.0 |
| 20260904195521 | 76 | 266 | 6.0 | 9.0 | 0.00 | 0.00 | 0.00 | 28 | 1026.0 |
| 20260904194521 | 77 | 251 | 5.0 | 9.0 | 0.00 | 0.00 | 0.00 | 27 | 1026.0 |
| 20260904193521 | 76 | 228 | 5.0 | 8.0 | 0.00 | 0.00 | 0.00 | 28 | 1026.1 |
| 20260904192519 | 76 | 256 | 6.0 | 10.0 | 0.00 | 0.00 | 0.00 | 29 | 1026.1 |
| 20260904191519 | 78 | 262 | 9.0 | 13.0 | 0.00 | 0.00 | 0.00 | 27 | 1026.2 |
| 20260904190519 | 77 | 235 | 7.0 | 15.0 | 0.00 | 0.00 | 0.00 | 28 | 1026.3 |
| 20260904185519 | 77 | 194 | 6.0 | 12.0 | 0.00 | 0.00 | 0.00 | 30 | 1026.5 |
| 20260904184519 | 78 | 245 | 7.0 | 15.0 | 0.00 | 0.00 | 0.00 | 28 | 1026.5 |
| 20260904183519 | 77 | 251 | 7.0 | 16.0 | 0.00 | 0.00 | 0.00 | 29 | 1026.5 |